[[{"header":{"parameterUnit":"m.s-1","parameterCategory":1,"la1":30.2991,"la2":30.254,"lo1":-89.0895,"lo2":-89.0444,"dy":0.0017,"dx":0.0017,"nx":28,"ny":28,"refTime":"2023-07-25T09:00:00:Z","depth":0,"parameterNumber":2,"parameterNumberName":"U-component_of_WINDS"},"data":[0,0,0,0,0,0,0,0,0,0,0,0,0,0,0,0,0,0,0,0,0,0,0,0,0,0,0,0,0,0,0,0,0,0,0,0,0,0,0,0,0,0,0,0,0,0,0,0,0,0,0,0,0,0,0,0,0,0,2.1298,2.1298,0,2.1317,2.1317,2.1318,2.1216,2.1213,2.121,2.1208,2.1229,2.1232,2.1236,0,0,0,0,0,0,0,0,0,0,0,0,0,2.1175,2.1177,2.1298,2.1298,2.1299,2.1317,2.1317,2.1318,2.1217,2.1213,2.121,2.1206,2.1228,2.1232,2.1236,0,0,0,0,0,0,0,0,0,0,0,0,0,2.1215,2.1178,2.1298,2.125,2.1246,2.1317,2.1317,2.1318,2.1217,2.1213,2.1209,2.1205,2.1227,2.1232,2.1236,2.1355,0,0,2.1252,2.1254,0,0,0,0,0,0,0,0,2.1212,2.1219,2.1257,2.1254,2.1249,2.126,2.1282,2.133,2.1219,2.1228,2.1207,2.1202,2.1243,2.1246,2.126,2.1356,2.1357,2.1252,2.1255,2.1257,2.1259,0,0,0,0,0,0,0,2.121,2.1218,2.1306,2.1258,2.1253,2.1228,2.1229,2.129,2.126,2.1227,2.122,2.1223,2.124,2.1255,2.1259,2.1357,2.1252,2.1256,2.1259,2.1261,2.1549,2.1554,0,0,0,0,0,0,2.1213,2.1216,2.1305,2.1306,2.122,2.1234,2.1235,2.1261,2.1259,2.1255,2.1227,2.1219,2.1249,2.1254,2.126,2.1397,2.1257,2.1262,2.1265,2.1545,2.155,2.1555,0,0,0,0,0,0,2.1211,2.1222,2.1304,2.1259,2.1268,2.1241,2.1271,2.1264,2.1278,2.1259,2.1253,2.1248,2.1246,2.1253,2.1331,2.1396,2.1264,2.1268,2.1539,2.1546,2.1553,2.1673,0,0,0,0,0,0,2.1208,2.1222,2.1267,2.1261,2.1271,2.1376,2.1275,2.1267,2.1287,2.1276,2.1277,2.1273,2.1243,2.1324,2.1336,2.1401,2.1272,2.1533,2.1542,2.1551,2.1663,2.1684,2.1701,0,0,0,0,0,2.1204,2.1301,2.1269,2.1281,2.1326,2.138,2.1385,2.1348,2.1293,2.1337,2.1324,2.1273,2.1387,2.1333,2.1346,2.1413,2.1529,2.154,2.155,2.1655,2.168,2.17,0,0,0,0,0,0,2.1316,2.1299,2.1264,2.1362,2.1373,2.1362,2.1418,2.1375,2.1402,2.1391,2.1344,2.1345,2.1431,2.143,2.137,2.1526,2.1448,2.1462,2.1524,2.1547,2.1566,2.1564,2.1276,0,0,0,0,0,2.1352,2.1396,2.1379,2.1467,2.1474,2.1446,2.1468,2.1437,2.1447,2.1451,2.1444,2.1456,2.1494,2.1521,2.1555,2.1662,2.1661,2.1714,2.1733,2.1749,2.1761,2.1816,2.184,2.159,2.159,2.159,0,0,2.1427,2.1423,2.1454,2.149,2.1495,2.1542,2.145,2.1505,2.1539,2.146,2.1533,2.1529,2.1538,2.1632,2.1672,2.1633,2.1829,2.1762,2.1775,2.1778,2.183,2.1853,2.1874,2.1597,2.1596,2.1595,0,0,2.1587,2.1589,2.1662,2.1668,2.1676,2.1656,2.1674,2.1669,2.1663,2.1735,2.1676,2.1717,2.1784,2.1793,2.1807,2.1969,2.1923,2.1982,2.208,2.2134,2.2154,2.2171,2.2228,2.2249,2.1994,2.1994,2.1995,0,2.168,2.1748,2.1705,2.1763,2.178,2.1709,2.1782,2.179,2.181,2.1823,2.1779,2.186,2.1862,2.1956,2.1995,2.2009,2.2027,2.1982,2.2154,2.2171,2.2187,2.2241,2.2262,2.2001,2.2001,2.2,2.1999,0,2.1861,2.191,2.1967,2.1986,2.201,2.2075,2.2042,2.2071,2.2038,2.2023,2.2097,2.2096,2.2129,2.2149,2.2118,2.2238,2.2213,2.2162,2.2083,2.2218,2.2268,2.2288,2.2012,2.2009,2.2007,2.2005,0,0,2.2094,2.2087,2.2109,2.2116,2.2119,2.2155,2.2217,2.2248,2.2273,2.2289,2.2339,2.2397,2.2349,2.2365,2.2334,2.2382,2.251,2.2325,2.2325,2.2359,2.264,2.2678,2.2703,2.2479,2.2482,2.2485,2.2639,0,2.225,2.2355,2.2317,2.2424,2.2468,2.24,2.2454,2.2461,2.2448,2.2484,2.2469,2.251,2.2445,2.2454,2.2498,2.2485,2.2565,2.2473,2.2525,2.2527,2.2524,2.2729,2.2769,2.2915,2.2659,2.2662,2.2664,0,2.2447,2.2469,2.258,2.2574,2.2591,2.264,2.2664,2.2698,2.2705,2.2692,2.2709,2.2668,2.2728,2.2649,2.273,2.2668,2.2687,2.2684,2.2688,2.2691,2.2604,2.2737,2.296,2.2982,2.2695,2.2692,2.269,0,2.2605,2.2662,2.2735,2.2744,2.2739,2.2774,2.2774,2.2777,2.2797,2.2818,2.2831,2.2859,2.2875,2.2898,2.2865,2.2811,2.2951,2.287,2.2942,2.2943,2.2974,2.2973,2.3203,2.2988,2.2987,2.2987,2.2986,0,2.2783,2.2854,2.2806,2.2851,2.2928,2.2883,2.2961,2.2953,2.2955,2.2998,2.2942,2.2983,2.2937,2.2974,2.2949,2.302,2.3028,2.3018,2.3011,2.3023,2.3024,2.3035,2.3024,2.2993,2.2991,2.299,2.2989,0,2.2973,2.2943,2.3019,2.3007,2.3006,2.3063,2.3053,2.3094,2.3076,2.313,2.3141,2.3113,2.3153,2.3123,2.3163,2.3146,2.3239,2.3218,2.3237,2.3231,2.3304,2.3297,2.3549,2.3579,2.3345,2.3347,2.3349,0,2.3088,2.3141,2.3134,2.3158,2.3161,2.32,2.322,2.3178,2.3201,2.3212,2.3252,2.3287,2.3313,2.338,2.3364,2.3394,2.3372,2.3458,2.3377,2.3387,2.3373,2.337,2.3374,2.3475,2.3478,2.348,2.3482,0,2.3296,2.3279,2.3309,2.3335,2.3359,2.3378,2.3391,2.3414,2.3371,2.34,2.344,2.346,2.35,2.3535,2.3559,2.3558,2.3514,2.3508,2.3526,2.3539,2.3547,2.3543,2.3281,2.3502,2.35,2.3499,2.3497,2.3497,2.3452,2.3494,2.3496,2.3531,2.3537,2.355,2.3588,2.3574,2.3606,2.3635,2.3608,2.3656,2.366,2.3688,2.3693,2.3729,2.3694,2.3721,2.3727,2.3734,2.3744,2.3542,2.3734,2.3733,2.3733,2.3732,2.3732,0,2.3656,2.3653,2.3686,2.3706,2.3734,2.3688,2.37,2.3726,2.3769,2.3776,2.3802,2.3847,2.3881,2.3867,2.3896,2.3928,2.3908,2.3938,2.3934,2.3935,2.3775,2.3756,2.3953,2.3953,2.3953,2.3953,2.3953,2.3953,2.3766,2.3835,2.3818,2.3889,2.3886,2.3931,2.3942,2.3954,2.3959,2.4012,2.4039,2.4029,2.4028,2.4057,2.4085,2.408,2.4093,2.413,2.4118,2.3968,2.3946,2.3926,2.3907,2.4134,2.4134,2.4275,2.4276,2.4277]},{"header":{"parameterUnit":"m.s-1","parameterCategory":1,"la1":30.2991,"la2":30.254,"lo1":-89.0895,"lo2":-89.0444,"dy":0.0017,"dx":0.0017,"nx":28,"ny":28,"refTime":"2023-07-25T09:00:00:Z","depth":0,"parameterNumber":3,"parameterNumberName":"V-component_of_WINDS"},"data":[0,0,0,0,0,0,0,0,0,0,0,0,0,0,0,0,0,0,0,0,0,0,0,0,0,0,0,0,0,0,0,0,0,0,0,0,0,0,0,0,0,0,0,0,0,0,0,0,0,0,0,0,0,0,0,0,0,0,-0.6484,-0.6484,0,-0.6518,-0.6519,-0.6519,-0.6538,-0.6538,-0.6538,-0.6538,-0.6576,-0.6577,-0.6578,0,0,0,0,0,0,0,0,0,0,0,0,0,-0.6436,-0.6437,-0.6484,-0.6484,-0.6484,-0.6518,-0.6519,-0.6519,-0.6538,-0.6538,-0.6538,-0.6538,-0.6576,-0.6577,-0.6578,0,0,0,0,0,0,0,0,0,0,0,0,0,-0.6463,-0.6437,-0.6483,-0.6498,-0.6499,-0.6518,-0.6519,-0.6519,-0.6538,-0.6538,-0.6538,-0.6538,-0.6576,-0.6577,-0.6579,-0.6587,0,0,-0.6583,-0.6584,0,0,0,0,0,0,0,0,-0.6461,-0.6464,-0.6495,-0.6497,-0.6499,-0.6524,-0.6516,-0.6542,-0.6538,-0.6523,-0.6538,-0.6538,-0.6559,-0.6562,-0.6568,-0.6589,-0.659,-0.6583,-0.6584,-0.6585,-0.6585,0,0,0,0,0,0,0,-0.6459,-0.6463,-0.6497,-0.6496,-0.6498,-0.6503,-0.6507,-0.6521,-0.6541,-0.6525,-0.6526,-0.653,-0.656,-0.6567,-0.657,-0.6591,-0.6583,-0.6585,-0.6586,-0.6586,-0.6621,-0.6621,0,0,0,0,0,0,-0.6455,-0.6461,-0.6496,-0.6498,-0.6479,-0.6504,-0.6508,-0.6516,-0.654,-0.6544,-0.653,-0.653,-0.6564,-0.6568,-0.6571,-0.6583,-0.6585,-0.6586,-0.6587,-0.6621,-0.6621,-0.6621,0,0,0,0,0,0,-0.6454,-0.6458,-0.6495,-0.648,-0.6485,-0.6505,-0.6513,-0.6516,-0.6523,-0.6544,-0.6548,-0.6533,-0.6565,-0.6569,-0.6583,-0.6585,-0.6587,-0.6588,-0.6621,-0.6621,-0.6621,-0.6607,0,0,0,0,0,0,-0.6452,-0.6457,-0.646,-0.648,-0.6486,-0.6505,-0.6513,-0.6517,-0.6525,-0.6527,-0.6548,-0.6552,-0.6565,-0.6581,-0.6584,-0.6587,-0.6589,-0.6621,-0.6621,-0.6621,-0.6607,-0.6606,-0.6605,0,0,0,0,0,-0.645,-0.6454,-0.646,-0.6464,-0.6489,-0.6505,-0.6509,-0.6523,-0.6525,-0.6529,-0.6543,-0.6551,-0.6584,-0.6582,-0.6586,-0.6589,-0.6621,-0.6621,-0.6621,-0.6607,-0.6606,-0.6605,0,0,0,0,0,0,-0.6434,-0.6457,-0.6463,-0.6474,-0.6487,-0.6508,-0.6513,-0.6521,-0.6535,-0.6535,-0.6553,-0.6558,-0.6571,-0.6581,-0.6579,-0.6599,-0.6604,-0.6605,-0.6591,-0.6591,-0.659,-0.6587,-0.6591,0,0,0,0,0,-0.6432,-0.6442,-0.6462,-0.6469,-0.6476,-0.6493,-0.65,-0.651,-0.6525,-0.6531,-0.6546,-0.6561,-0.6575,-0.6583,-0.6597,-0.6609,-0.6614,-0.6613,-0.6612,-0.6611,-0.6612,-0.662,-0.662,-0.6622,-0.6622,-0.6622,0,0,-0.6427,-0.6441,-0.6446,-0.6466,-0.6478,-0.6489,-0.6498,-0.6508,-0.6517,-0.6533,-0.6547,-0.6558,-0.6577,-0.659,-0.6597,-0.6599,-0.6613,-0.6612,-0.6611,-0.6612,-0.662,-0.662,-0.662,-0.6622,-0.6622,-0.6622,0,0,-0.6424,-0.6435,-0.6442,-0.6454,-0.6471,-0.6483,-0.6485,-0.6505,-0.6513,-0.6527,-0.6539,-0.6551,-0.6573,-0.6586,-0.6596,-0.6598,-0.6607,-0.6603,-0.6598,-0.6606,-0.6606,-0.6606,-0.6607,-0.6608,-0.6603,-0.6603,-0.6603,0,-0.6416,-0.6431,-0.6446,-0.6456,-0.6465,-0.6479,-0.6488,-0.6499,-0.652,-0.6526,-0.6529,-0.6559,-0.6572,-0.6589,-0.659,-0.6597,-0.66,-0.66,-0.6604,-0.6605,-0.6605,-0.6607,-0.6607,-0.6602,-0.6602,-0.6603,-0.6603,0,-0.6421,-0.6432,-0.6437,-0.6456,-0.6465,-0.6475,-0.6492,-0.65,-0.6509,-0.6521,-0.6536,-0.6553,-0.657,-0.6575,-0.6584,-0.6594,-0.6595,-0.6601,-0.6606,-0.6604,-0.6606,-0.6607,-0.6601,-0.6602,-0.6602,-0.6602,0,0,-0.6408,-0.6435,-0.6437,-0.6446,-0.6467,-0.6476,-0.6487,-0.6503,-0.651,-0.6525,-0.6535,-0.6555,-0.6561,-0.6571,-0.6583,-0.6589,-0.6591,-0.6595,-0.6595,-0.6594,-0.6604,-0.6599,-0.66,-0.6598,-0.6598,-0.6598,-0.6603,0,-0.6408,-0.6426,-0.644,-0.6454,-0.6465,-0.6479,-0.6489,-0.6503,-0.6515,-0.6527,-0.6541,-0.6554,-0.6561,-0.6567,-0.6575,-0.6589,-0.6594,-0.6589,-0.6608,-0.6609,-0.6603,-0.6601,-0.6596,-0.6599,-0.6603,-0.6604,-0.6604,0,-0.641,-0.6423,-0.6438,-0.6458,-0.6463,-0.6471,-0.6488,-0.6499,-0.6516,-0.6525,-0.6537,-0.6548,-0.6562,-0.6566,-0.6585,-0.6582,-0.6591,-0.66,-0.66,-0.6602,-0.6606,-0.6603,-0.66,-0.6601,-0.6605,-0.6605,-0.6605,0,-0.6399,-0.6421,-0.6433,-0.644,-0.6464,-0.647,-0.648,-0.6497,-0.6507,-0.6522,-0.6529,-0.6545,-0.6555,-0.6568,-0.6585,-0.6586,-0.6603,-0.6608,-0.6611,-0.6611,-0.6614,-0.6613,-0.6613,-0.6619,-0.6619,-0.6619,-0.6619,0,-0.6398,-0.6406,-0.6428,-0.6436,-0.6446,-0.6463,-0.6473,-0.6485,-0.65,-0.6511,-0.6525,-0.6535,-0.6556,-0.6569,-0.6582,-0.6597,-0.6601,-0.6609,-0.6613,-0.6608,-0.6607,-0.6614,-0.6614,-0.6619,-0.6619,-0.6619,-0.6619,0,-0.6387,-0.6402,-0.6416,-0.6438,-0.6443,-0.645,-0.6469,-0.6478,-0.649,-0.6504,-0.6508,-0.6529,-0.6545,-0.6563,-0.6585,-0.6594,-0.6608,-0.6613,-0.6602,-0.6604,-0.6606,-0.6606,-0.661,-0.6612,-0.6617,-0.6617,-0.6617,0,-0.6385,-0.6392,-0.6414,-0.6422,-0.6432,-0.6444,-0.6454,-0.6471,-0.648,-0.6501,-0.6507,-0.6525,-0.6539,-0.6565,-0.6583,-0.66,-0.6606,-0.6606,-0.6609,-0.6604,-0.6606,-0.6606,-0.6607,-0.6605,-0.6605,-0.6605,-0.6605,0,-0.638,-0.6387,-0.64,-0.6416,-0.6427,-0.644,-0.6454,-0.646,-0.648,-0.6491,-0.6507,-0.6518,-0.6541,-0.6559,-0.6579,-0.6591,-0.6602,-0.6604,-0.6606,-0.6601,-0.6595,-0.6599,-0.66,-0.6604,-0.6604,-0.6604,-0.6604,-0.6604,-0.6374,-0.6381,-0.6398,-0.6412,-0.6424,-0.6437,-0.6446,-0.646,-0.6474,-0.6493,-0.6503,-0.6519,-0.6538,-0.6566,-0.6578,-0.6592,-0.6595,-0.6598,-0.6598,-0.6599,-0.6598,-0.6592,-0.6596,-0.6596,-0.6596,-0.6596,-0.6596,0,-0.637,-0.6382,-0.6394,-0.6413,-0.6425,-0.6433,-0.6449,-0.6459,-0.6473,-0.6489,-0.6503,-0.6523,-0.654,-0.6559,-0.6578,-0.6586,-0.6591,-0.659,-0.659,-0.6593,-0.6594,-0.659,-0.6585,-0.6585,-0.6585,-0.6585,-0.6585,-0.6585,-0.6369,-0.6382,-0.6391,-0.6411,-0.6423,-0.6438,-0.6447,-0.646,-0.6473,-0.6493,-0.6507,-0.652,-0.6538,-0.6558,-0.6575,-0.658,-0.6587,-0.6584,-0.6591,-0.6592,-0.6592,-0.6593,-0.659,-0.6585,-0.6585,-0.6589,-0.6589,-0.6589]}]]